JINZIJING 1 03 (49813 NORAD) Tracking and Keplerian Element Data

This shows tracking and keplerian element data for the satellite.

Feedback or suggestion? Click here.




ElementValue
Catalog49813
NameJINZIJING 1 03
Epoch Orbit2509
Epoch Day140.82045809
Epoch Year2022
RAAN216.7594
Inclination97.3838
Eccentricity0.0012998
Argument of Perigee73.6099
Mean Anonmoly35.3169
Mean Motion15.2641825
Decay Rate0.00014937
L11 49813U 21117B 22140.82045809 .00014937 00000+0 57449-3 0 9997
L22 49813 97.3838 216.7594 0012998 73.6099 35.3169 15.26418250 25099

Live tracking and technical data element details for JINZIJING 1 03 (NORAD 49813). JINZIJING 1 03 can be tracked NOW for your location showing map with azimuth and elevation plus other details from your city location.

Track the satellite on the map from your city or location and see movement details for azimuth, elevation, latitude, longitude, range, height, and movement on the map or in text.







IsCatalogInMostPopularTable: catalog: 49813, numindb: 23
Update: records affected: 1



GetName: 49813 JINZIJING 1 03

Hit Count: updated at: Mon, 23 May 2022 20:07:20 GMT